User: anonymous   Login
Location: Buckeye Ditch
(40.9104°N, 122.9517°W)
Time: 13:07:43
(UTC+00:00)
Language:

SL-16 R/B - Orbit

View from above orbital plane
View from above orbital plane
View from above satellite
View from above satellite

Ground track
Ground track

The orbit data is extracted from the following two-line orbital elements,

1 27006U 01056F   24171.96937260 -.00000028  00000-0  20336-4 0  9993
2 27006  99.6861 319.1542 0014873 157.8926 310.1974 13.71032417127174
Epoch (UTC): 19 June 2024 23:15:53
Eccentricity: 0.0014873
inclination: 99.6861°
perigee height: 985 km
apogee height: 1007 km
right ascension of ascending node: 319.1542°
argument of perigee: 157.8926°
revolutions per day: 13.71032417
mean anomaly at epoch: 310.1974°
orbit number at epoch: 12717

The dashed part of the orbit path shows where the satellite is in the earth's shadow,  

DLR